PROFILE

 METAR AND TAF INFORMATION
ADDS - METARS form results

(0424 UTC 25 April 2019)
http://aviationweather.gov/metar/data/
 
RJBB 250400Z 22005KT 9999 FEW015 SCT/// 21/19 Q1004 NOSIG
RJBB 250330Z 26004KT 9999 FEW015 BKN040 22/18 Q1005 NOSIG
TAF RJBB 242310Z 2500/2606 22004KT 9999 FEW015 SCT050 BECMG 2509/2511 05008KT BECMG 2521/2600 28009KT 

 AIRPORT MAP

 RUNWAY INFORMATION
Runway 06L Runway length 13123 ft Runway width 196 ft
Runway elevation 24 ft Runway displaced threshold 0 ft Runway heading 51
Runway 24R Runway length 13123 ft Runway width 196 ft
Runway elevation 32 ft Runway displaced threshold 0 ft Runway heading 231
Runway 06R Runway length 11483 ft Runway width 196 ft
Runway elevation 6 ft Runway displaced threshold 0 ft Runway heading 51
Runway 24L Runway length 11483 ft Runway width 196 ft
Runway elevation 15 ft Runway displaced threshold 0 ft Runway heading 231

 AIRPORT FREQUENCIES
Type APP Name APP Frequency 120.25 MHZ
Type ATIS Name ATIS Frequency 127.85 MHZ
Type CLD Name CLNC DEL Frequency 121.9 MHZ
Type DEP Name DEP Frequency 119.2 MHZ
Type GND Name GND Frequency 121.6 MHZ
Type TCA Name TCA Frequency 121.1 MHZ
Type TWR Name TWR Frequency 118.2 MHZ

 AIRPORT NEAR NAVIGATION AIDS
Type NDB Name Kansai Frequency 346 KHZ
Type VOR-DME Name Kansai Frequency 111800 KHZ
Type VOR-DME Name Shigi Frequency 111600 KHZ
Type VOR-DME Name Shinoda Frequency 112300 KHZ
Type VOR-DME Name Tomo Frequency 116400 KHZ